Regional Weather Roundup
Issued by NWS Charleston, SC

Current Version | Previous Version | Graphics & Text | Print | Product List | Glossary On
Versions: 1 2 3 4 5 6 7 8 9 10 11 12 13 14 15 16 17 18 19 20 21 22 23 24 25 26 27 28 29 30 31 32 33 34 35 36 37 38 39 40 41 42 43 44 45 46 47 48 49 50
000 ASUS42 KCHS 290410 RWRCHS REGIONAL WEATHER ROUNDUP NATIONAL WEATHER SERVICE CHARLESTON SC 1200 AM EDT FRI AUG 29 2014 NOTE: "FAIR" INDICATES FEW OR NO CLOUDS BELOW 12,000 FEET WITH NO SIGNIFICANT WEATHER AND/OR OBSTRUCTIONS TO VISIBILITY. NOT ALL STATIONS ARE QUALITY CONTROLLED BY THE NATIONAL WEATHER SERVICE. USE DATA WITH CAUTION...ESPECIALLY DEWPOINT OBSERVATIONS. SCZ027-030-031-034>040-042>050-290500- ...SOUTH CAROLINA... CITY SKY/WX TMP DP RH WIND PRES REMARKS N CHARLESTON CLEAR 74 68 81 S5 30.04S WATERFRONT PRK N/A 79 N/A N/A SW3 N/A FORT JOHNSON NOT AVBL MOUNT PLEASANT FAIR 70 68 94 CALM 30.04S JOHNS ISLAND CLEAR 72 70 94 CALM 30.04S PINOPOLIS N/A 79 66 65 S3 29.96R MONCKS CORNER N/A 72 70 94 CALM 30.03S SUMMERVILLE NOT AVBL BEAUFORT MCAS CLEAR 73 68 84 W3 30.04S BEAUFORT ARPT FAIR 72 72 100 S5 30.04R HILTON HEAD IS CLEAR 75 72 88 SE3 30.05S GEORGETOWN NOT AVBL WALTERBORO CLEAR 70 70 100 CALM 30.05R ORANGEBURG CLEAR 70 63 78 CALM 30.04S BARNWELL FAIR 75 63 64 CALM 30.04S AIKEN FAIR 72 63 73 S7 30.07S MANNING FAIR 77 70 78 CALM 30.04R KINGSTREE NOT AVBL COLUMBIA CLEAR 78 60 53 SW7 30.02R SUMTER CLEAR 75 65 71 S3 30.02R FLORENCE CLEAR 75 65 70 SW6 30.03R MYRTLE BEACH CLEAR 77 66 69 SW5 30.04R N MYRTLE BEACH CLEAR 79 70 74 W5 30.03R $$ GAZ063-065-086>088-099>101-113>116-118-119-134-136>141-150-290500- ...GEORGIA... CITY SKY/WX TMP DP RH WIND PRES REMARKS SAVANNAH ARPT CLEAR 76 69 79 CALM 30.05R HUNTER AAF CLEAR 74 71 92 CALM 30.03R FORT STEWART CLEAR 72 68 88 CALM 30.04R STATESBORO NOT AVBL SYLVANIA CLEAR 71 69 93 CALM 30.05R CLAXTON NOT AVBL THOMSON CLEAR 71 67 87 CALM 30.07S AUGUSTA-BUSH CLEAR 68 62 81 CALM 30.02S AUGUSTA-DANIEL CLEAR 77 63 61 SE5 30.04R SWAINSBORO FAIR 77 68 73 S5 30.05R VIDALIA N/A 75 70 83 S5 30.05R ALMA PTCLDY 73 68 84 CALM 30.05R WAYCROSS CLEAR 79 72 80 S5 30.05R JESUP N/A 73 72 94 CALM 30.05R BRUNSWICK CLEAR 72 68 88 CALM 30.05R SAINT SIMONS PTCLDY 79 72 79 SE6 30.04R $$ SCZ027-028-034-036>038-045-046-048>050-GAZ119-141-290500- ...LAKE AND SUPPLEMENTAL COASTAL OBSERVATIONS... STATION/POSITION TIME TEMP WIND PRES WAVE SWELL AIR SEA DIR/SP/G HT/PER HT/PER/DIR (UTC) (F) (DEG/KT/KT) (MB) (FT/S) (FT/S/D) UPR LAKE MARION NOT AVBL WINYAH BAY 0300 76 250/ 2 1016.0S LAKE MURRAY 0300 83 180/ 9/ 10 1015.9R ACE BASIN NERRS 0300 74 CALM 1017.0S FORT PULASKI 0400 80 130/ 4/ 5 1017.5R SAPELO ISLAND 0300 76 130/ 3 1017.0S $$ ANZ835-935-AMZ111-154-330-350-352-354-374-450-454-472-290500- ...C-MAN AND BUOY OBSERVATIONS... STATION/POSITION TIME TEMP WIND PRES WAVE SWELL AIR SEA DIR/SP/G HT/PER HT/PER/DIR (UTC) (F) (DEG/KT/KT) (MB) (FT/S) (FT/S/D) FOLLY BEACH CMAN 0300 80 190/ 9/ 10 1017.6R BUOY 41004 0400 81 83 170/ 8/ 10 1016.9R 4/ 9 3/ 9 BUOY 41008 0400 82 84 150/ 8/ 10 1017.1R 3/ 9 2/ 80/ 9 5E ST. MARYS GA 0400 84 N/A 3/ 9 2/100/11 FRYING PAN BUOY NOT AVBL BUOY 41025 0400 80 340/ 4/ 6 1016.8R 5/ 9 5/120/ 9 CAPE LOOKOUT NC 0300 80 230/ 6/ 8 1016.4R BUOY 41002 0309 81 82 230/ 4/ 6 1018.6S 5/ 9 5/110/ 9 BUOY 41010 0400 83 84 120/ 6/ 8 1017.6S 4/ 9 5/ 60/ 9 BUOY 41012 NOT AVBL ST AUGUSTINE FL 0400 81 150/ 12/ 14 1017.8F CAPERS NEARSHORE NOT AVBL FRIPP NEARSHORE NOT AVBL $$

USA.gov is the U.S. government's official web portal to all federal, state and local government web resources and services.